RYR8DW EPPO-LIRA

Flight info

Callsign RYR8DW
Flight time N/A
Altitude 37000
Route XIDNA DCT VAGON DCT DESEN/N0448F360 DCT MIKOV DCT BUSET DCT BAXON/N0449F370 DCT UNUMU/N0376F190 N737 IPGOR Y106 GITOD
Aircraft B738/M-SDE2E3FGHIRWXY/LB1

Departure

Time 2026-05-04 14:16
Airport Poznań-Ławica Airport (EPPO)

Arrival

Time N/A
Airport Ciampino–G. B. Pastine International Airport (LIRA)
Time Latitude Longitude Altitude Speed Heading
2026-05-04 13:50 52.41583 16.82910 287 ft 0 kts 193°
2026-05-04 14:08 52.41584 16.82910 287 ft 0 kts 193°
2026-05-04 14:08 52.41596 16.82915 287 ft 3 kts 191°
2026-05-04 14:08 52.41616 16.82921 287 ft 3 kts 186°
2026-05-04 14:09 52.41652 16.82913 289 ft 3 kts 133°
2026-05-04 14:09 52.41658 16.82899 287 ft 0 kts 102°
2026-05-04 14:12 52.41654 16.82925 289 ft 9 kts 102°
2026-05-04 14:12 52.41640 16.83031 290 ft 10 kts 102°
2026-05-04 14:12 52.41611 16.83243 293 ft 11 kts 102°
2026-05-04 14:13 52.41592 16.83378 287 ft 13 kts 103°
2026-05-04 14:13 52.41576 16.83493 287 ft 10 kts 103°
2026-05-04 14:13 52.41568 16.83608 287 ft 10 kts 91°
2026-05-04 14:13 52.41564 16.83739 287 ft 15 kts 94°
2026-05-04 14:14 52.41565 16.83870 287 ft 8 kts 67°
2026-05-04 14:14 52.41641 16.83986 292 ft 8 kts 21°
2026-05-04 14:14 52.41715 16.84031 287 ft 13 kts 20°
2026-05-04 14:15 52.41836 16.84008 288 ft 6 kts 287°
2026-05-04 14:15 52.41921 16.83566 292 ft 83 kts 287°
2026-05-04 14:16 52.42558 16.80332 726 ft 189 kts 288°
2026-05-04 14:16 52.42980 16.78268 1831 ft 183 kts 286°
2026-05-04 14:17 52.43697 16.74509 3979 ft 170 kts 285°
2026-05-04 14:17 52.44050 16.72656 4714 ft 175 kts 284°
2026-05-04 14:17 52.44839 16.68481 5683 ft 202 kts 285°
2026-05-04 14:18 52.45253 16.66303 6324 ft 202 kts 285°
2026-05-04 14:18 52.46081 16.61937 7612 ft 198 kts 282°
2026-05-04 14:19 52.45815 16.57605 8599 ft 207 kts 246°
2026-05-04 14:19 52.45031 16.55478 8833 ft 232 kts 229°
2026-05-04 14:19 52.43767 16.53624 9082 ft 257 kts 213°
2026-05-04 14:19 52.42008 16.52864 9729 ft 273 kts 180°
2026-05-04 14:20 52.40139 16.53495 10362 ft 286 kts 169°
2026-05-04 14:20 52.38144 16.54468 10552 ft 312 kts 167°
2026-05-04 14:20 52.35992 16.55578 10728 ft 336 kts 166°
2026-05-04 14:21 52.31317 16.57998 11599 ft 361 kts 166°
2026-05-04 14:21 52.28907 16.59230 12323 ft 364 kts 166°
2026-05-04 14:21 52.26473 16.60462 13040 ft 368 kts 167°
2026-05-04 14:21 52.24008 16.61700 13730 ft 373 kts 166°
2026-05-04 14:22 52.21511 16.62947 14344 ft 377 kts 167°
2026-05-04 14:22 52.18988 16.64205 14983 ft 381 kts 166°
2026-05-04 14:22 52.16482 16.65452 15603 ft 384 kts 166°
2026-05-04 14:22 52.13929 16.66846 16203 ft 391 kts 160°
2026-05-04 14:23 52.08928 16.70598 17383 ft 400 kts 158°
2026-05-04 14:23 52.06397 16.72538 17983 ft 404 kts 158°
2026-05-04 14:23 52.03841 16.74489 18517 ft 408 kts 158°
2026-05-04 14:24 52.01259 16.76445 19040 ft 411 kts 158°
2026-05-04 14:24 51.98697 16.78377 19598 ft 413 kts 158°
2026-05-04 14:24 51.96083 16.80339 20111 ft 416 kts 158°
2026-05-04 14:24 51.93446 16.82313 20604 ft 419 kts 158°
2026-05-04 14:25 51.90793 16.84295 21129 ft 421 kts 158°
2026-05-04 14:25 51.85433 16.88292 22089 ft 427 kts 159°
2026-05-04 14:25 51.82722 16.90310 22546 ft 430 kts 159°
2026-05-04 14:26 51.79991 16.92341 22999 ft 434 kts 159°
2026-05-04 14:26 51.77241 16.94384 23451 ft 437 kts 159°
2026-05-04 14:26 51.74512 16.96408 23828 ft 439 kts 159°
2026-05-04 14:26 51.71725 16.98467 24193 ft 442 kts 159°
2026-05-04 14:27 51.68848 17.00183 24545 ft 440 kts 168°
2026-05-04 14:27 51.65853 17.01186 24917 ft 440 kts 173°
2026-05-04 14:27 51.62828 17.02041 25253 ft 443 kts 173°
2026-05-04 14:27 51.59781 17.02890 25571 ft 446 kts 173°
2026-05-04 14:28 51.56714 17.03760 25900 ft 449 kts 173°
2026-05-04 14:28 51.53675 17.04643 26235 ft 451 kts 173°
2026-05-04 14:28 51.50581 17.05558 26557 ft 453 kts 173°
2026-05-04 14:28 51.47470 17.06485 26868 ft 456 kts 173°
2026-05-04 14:29 51.41203 17.08356 27440 ft 461 kts 173°
2026-05-04 14:29 51.34865 17.10240 28034 ft 465 kts 173°
2026-05-04 14:30 51.31667 17.11188 28337 ft 467 kts 172°
2026-05-04 14:30 51.28490 17.12243 28734 ft 467 kts 170°
2026-05-04 14:30 51.22228 17.14706 29608 ft 466 kts 168°
2026-05-04 14:31 51.19091 17.15990 30002 ft 465 kts 168°
2026-05-04 14:31 51.12826 17.18528 30679 ft 464 kts 169°
2026-05-04 14:32 51.06586 17.21002 31390 ft 461 kts 169°
2026-05-04 14:32 51.03472 17.22225 31700 ft 461 kts 169°
2026-05-04 14:32 51.00401 17.23426 32018 ft 460 kts 169°
2026-05-04 14:32 50.97298 17.24638 32372 ft 459 kts 169°
2026-05-04 14:33 50.94202 17.25846 32716 ft 458 kts 169°
2026-05-04 14:33 50.91112 17.27051 33032 ft 457 kts 169°
2026-05-04 14:33 50.88024 17.28253 33321 ft 457 kts 169°
2026-05-04 14:33 50.84939 17.29453 33629 ft 456 kts 169°
2026-05-04 14:34 50.81860 17.30648 33960 ft 455 kts 169°
2026-05-04 14:34 50.78791 17.31839 34239 ft 454 kts 169°
2026-05-04 14:34 50.75723 17.33028 34461 ft 454 kts 169°
2026-05-04 14:34 50.72692 17.34200 34663 ft 455 kts 169°
2026-05-04 14:35 50.69621 17.35386 34911 ft 454 kts 169°
2026-05-04 14:35 50.66555 17.36569 35170 ft 453 kts 169°
2026-05-04 14:35 50.63493 17.37750 35382 ft 453 kts 169°
2026-05-04 14:35 50.60429 17.38929 35601 ft 454 kts 169°
2026-05-04 14:36 50.58403 17.39708 35740 ft 453 kts 169°
2026-05-04 14:36 50.54311 17.41279 36072 ft 452 kts 169°
2026-05-04 14:36 50.52287 17.42055 36226 ft 451 kts 169°
2026-05-04 14:36 50.49235 17.43224 36427 ft 451 kts 169°
2026-05-04 14:37 50.45185 17.44772 36659 ft 452 kts 169°
2026-05-04 14:37 50.42138 17.45936 36870 ft 451 kts 169°
2026-05-04 14:37 50.39084 17.47101 36968 ft 453 kts 169°
2026-05-04 14:38 50.32947 17.49436 36960 ft 453 kts 169°
2026-05-04 14:38 50.27816 17.50554 36975 ft 444 kts 185°
2026-05-04 14:39 50.21853 17.48700 36975 ft 434 kts 204°
2026-05-04 14:39 50.16272 17.45166 36979 ft 432 kts 205°
2026-05-04 14:40 50.07955 17.39895 36981 ft 433 kts 204°
2026-05-04 14:40 50.02354 17.36418 36981 ft 434 kts 204°
2026-05-04 14:41 49.96729 17.32953 36996 ft 436 kts 204°
2026-05-04 14:42 49.85424 17.26022 36996 ft 440 kts 204°
2026-05-04 14:42 49.79713 17.22533 36995 ft 442 kts 204°
2026-05-04 14:43 49.73982 17.19040 36984 ft 443 kts 204°
2026-05-04 14:43 49.68240 17.15550 36985 ft 444 kts 204°
2026-05-04 14:44 49.62496 17.12067 36983 ft 443 kts 204°
2026-05-04 14:44 49.56795 17.08619 36987 ft 443 kts 204°
2026-05-04 14:45 49.51069 17.05165 36986 ft 442 kts 204°
2026-05-04 14:45 49.45342 17.01718 36984 ft 442 kts 204°
2026-05-04 14:46 49.39621 16.98284 36978 ft 441 kts 204°
2026-05-04 14:46 49.33905 16.94861 36976 ft 441 kts 204°
2026-05-04 14:47 49.28229 16.91470 36973 ft 441 kts 204°
2026-05-04 14:47 49.22517 16.88067 36963 ft 440 kts 204°
2026-05-04 14:48 49.16809 16.84674 36971 ft 440 kts 204°
2026-05-04 14:48 49.11094 16.81286 36966 ft 441 kts 204°
2026-05-04 14:49 49.05413 16.77926 36975 ft 441 kts 204°
2026-05-04 14:49 48.99687 16.74547 36966 ft 441 kts 204°
2026-05-04 14:50 48.93957 16.71174 36974 ft 442 kts 204°
2026-05-04 14:50 48.88220 16.67806 36974 ft 442 kts 204°
2026-05-04 14:51 48.82517 16.64464 36974 ft 442 kts 204°
2026-05-04 14:51 48.76816 16.60961 36974 ft 441 kts 208°
2026-05-04 14:52 48.71364 16.56748 36973 ft 440 kts 210°
2026-05-04 14:52 48.65951 16.52413 36976 ft 440 kts 210°
2026-05-04 14:53 48.60520 16.48122 36966 ft 440 kts 210°
2026-05-04 14:53 48.55111 16.43906 36971 ft 440 kts 210°
2026-05-04 14:54 48.49658 16.39685 36969 ft 440 kts 210°
2026-05-04 14:54 48.44204 16.35477 36963 ft 440 kts 210°
2026-05-04 14:55 48.38754 16.31280 36962 ft 440 kts 210°
2026-05-04 14:55 48.33341 16.27121 36959 ft 440 kts 210°
2026-05-04 14:56 48.27894 16.22946 36964 ft 439 kts 210°
2026-05-04 14:56 48.22446 16.18780 36956 ft 439 kts 210°
2026-05-04 14:57 48.16995 16.14621 36951 ft 439 kts 210°
2026-05-04 14:57 48.11587 16.10505 36956 ft 439 kts 210°
2026-05-04 14:58 48.06135 16.06366 36956 ft 439 kts 210°
2026-05-04 14:58 48.00680 16.02234 36957 ft 439 kts 209°
2026-05-04 14:59 47.95225 15.98112 36961 ft 439 kts 209°
2026-05-04 15:00 47.87038 15.91944 36962 ft 439 kts 209°
2026-05-04 15:00 47.81616 15.87872 36975 ft 440 kts 209°
2026-05-04 15:01 47.73434 15.81744 36986 ft 439 kts 209°
2026-05-04 15:01 47.67987 15.77677 37011 ft 437 kts 209°
2026-05-04 15:02 47.62551 15.73628 36994 ft 437 kts 209°
2026-05-04 15:02 47.57156 15.69618 36991 ft 437 kts 209°
2026-05-04 15:03 47.51716 15.65584 36985 ft 437 kts 209°
2026-05-04 15:03 47.46273 15.61557 36989 ft 438 kts 209°
2026-05-04 15:04 47.40824 15.57535 37000 ft 438 kts 209°
2026-05-04 15:04 47.35410 15.53548 36993 ft 438 kts 208°
2026-05-04 15:05 47.29947 15.49535 36980 ft 439 kts 208°
2026-05-04 15:05 47.24482 15.45529 36980 ft 439 kts 208°
2026-05-04 15:06 47.19021 15.41537 36975 ft 438 kts 208°
2026-05-04 15:07 47.10860 15.35586 36968 ft 439 kts 208°
2026-05-04 15:07 47.05393 15.31611 36967 ft 438 kts 208°
2026-05-04 15:08 46.99928 15.27647 36964 ft 438 kts 208°
2026-05-04 15:08 46.94465 15.23694 36972 ft 438 kts 208°
2026-05-04 15:09 46.89005 15.19751 36972 ft 437 kts 208°
2026-05-04 15:09 46.83590 15.15851 36985 ft 437 kts 208°
2026-05-04 15:10 46.75416 15.09978 36993 ft 436 kts 208°
2026-05-04 15:11 46.67248 15.04130 37005 ft 436 kts 208°
2026-05-04 15:11 46.61846 15.00273 37026 ft 436 kts 208°
2026-05-04 15:12 46.56396 14.96391 37018 ft 436 kts 208°
2026-05-04 15:12 46.50942 14.92515 37020 ft 436 kts 208°
2026-05-04 15:13 46.45486 14.88646 37027 ft 436 kts 208°
2026-05-04 15:13 46.40068 14.84812 37039 ft 436 kts 208°
2026-05-04 15:14 46.34619 14.80966 37050 ft 435 kts 208°
2026-05-04 15:14 46.29178 14.77133 37047 ft 435 kts 208°
2026-05-04 15:15 46.23747 14.73316 37051 ft 433 kts 208°
2026-05-04 15:15 46.18327 14.69515 37043 ft 433 kts 208°
2026-05-04 15:16 46.10250 14.63866 37047 ft 432 kts 208°
2026-05-04 15:17 46.02136 14.58209 37055 ft 432 kts 208°
2026-05-04 15:17 45.94009 14.52562 37061 ft 433 kts 208°
2026-05-04 15:18 45.88618 14.48826 37073 ft 434 kts 208°
2026-05-04 15:19 45.80454 14.43184 37087 ft 434 kts 208°
2026-05-04 15:19 45.72281 14.37555 37079 ft 435 kts 208°
2026-05-04 15:20 45.66868 14.33836 37096 ft 434 kts 208°
2026-05-04 15:20 45.61412 14.30096 37095 ft 435 kts 208°
2026-05-04 15:21 45.55949 14.26357 37099 ft 436 kts 208°
2026-05-04 15:22 45.47753 14.20733 37096 ft 436 kts 208°
2026-05-04 15:22 45.39676 14.14947 37101 ft 435 kts 209°
2026-05-04 15:23 45.34268 14.11071 37104 ft 435 kts 209°
2026-05-04 15:23 45.28851 14.07212 37094 ft 435 kts 209°
2026-05-04 15:24 45.18065 13.99567 37100 ft 434 kts 209°
2026-05-04 15:25 45.12662 13.95750 37102 ft 434 kts 209°
2026-05-04 15:26 45.04568 13.90046 37099 ft 433 kts 209°
2026-05-04 15:26 44.96515 13.84390 37103 ft 433 kts 209°
2026-05-04 15:27 44.88428 13.78727 37099 ft 432 kts 209°
2026-05-04 15:28 44.80353 13.73091 37101 ft 432 kts 209°
2026-05-04 15:29 44.72316 13.67498 37096 ft 431 kts 209°
2026-05-04 15:30 44.53464 13.54447 37085 ft 433 kts 209°
2026-05-04 15:31 44.45392 13.48886 37081 ft 434 kts 209°
2026-05-04 15:32 44.32032 13.39078 37082 ft 434 kts 212°
2026-05-04 15:34 44.18791 13.28965 37078 ft 436 kts 212°
2026-05-04 15:34 44.10799 13.22935 37071 ft 436 kts 212°
2026-05-04 15:35 44.02804 13.16921 37071 ft 435 kts 212°
2026-05-04 15:36 43.94848 13.10954 37067 ft 435 kts 212°
2026-05-04 15:36 43.89526 13.06973 37051 ft 432 kts 212°
2026-05-04 15:37 43.86902 13.05016 36706 ft 425 kts 212°
2026-05-04 15:37 43.84295 13.03072 36030 ft 427 kts 212°
2026-05-04 15:37 43.81665 13.01108 35231 ft 432 kts 212°
2026-05-04 15:37 43.79003 12.99121 34458 ft 437 kts 212°
2026-05-04 15:38 43.76314 12.97119 33665 ft 441 kts 211°
2026-05-04 15:38 43.73606 12.95105 32868 ft 443 kts 211°
2026-05-04 15:38 43.70931 12.93121 32324 ft 440 kts 211°
2026-05-04 15:38 43.68251 12.91136 31923 ft 434 kts 210°
2026-05-04 15:39 43.65604 12.89177 31475 ft 429 kts 210°
2026-05-04 15:39 43.62980 12.87236 30971 ft 426 kts 210°
2026-05-04 15:39 43.57771 12.83384 29935 ft 422 kts 209°
2026-05-04 15:40 43.55202 12.81488 29419 ft 418 kts 210°
2026-05-04 15:40 43.52654 12.79610 28965 ft 413 kts 210°
2026-05-04 15:40 43.50138 12.77755 28500 ft 408 kts 210°
2026-05-04 15:40 43.47650 12.75924 28055 ft 403 kts 210°
2026-05-04 15:41 43.45192 12.74115 27648 ft 398 kts 210°
2026-05-04 15:41 43.42792 12.72353 27187 ft 394 kts 210°
2026-05-04 15:41 43.40424 12.70507 26871 ft 387 kts 213°
2026-05-04 15:41 43.38131 12.68591 26450 ft 385 kts 214°
2026-05-04 15:42 43.35870 12.66653 26044 ft 382 kts 214°
2026-05-04 15:42 43.33629 12.64726 25633 ft 378 kts 214°
2026-05-04 15:42 43.31403 12.62820 25234 ft 376 kts 214°
2026-05-04 15:42 43.29186 12.60934 24825 ft 374 kts 214°
2026-05-04 15:43 43.26979 12.59064 24425 ft 372 kts 214°
2026-05-04 15:43 43.24782 12.57209 24024 ft 370 kts 214°
2026-05-04 15:43 43.22593 12.55364 23576 ft 369 kts 214°
2026-05-04 15:43 43.20413 12.53530 23129 ft 367 kts 214°
2026-05-04 15:44 43.18246 12.51710 22689 ft 364 kts 214°
2026-05-04 15:44 43.16125 12.49930 22282 ft 361 kts 214°
2026-05-04 15:44 43.13991 12.48141 21885 ft 359 kts 214°
2026-05-04 15:44 43.11871 12.46365 21475 ft 356 kts 214°
2026-05-04 15:45 43.09765 12.44602 21084 ft 353 kts 214°
2026-05-04 15:45 43.07674 12.42852 20697 ft 351 kts 214°
2026-05-04 15:45 43.05595 12.41114 20303 ft 349 kts 214°
2026-05-04 15:45 43.03522 12.39383 19922 ft 347 kts 214°
2026-05-04 15:46 43.01464 12.37664 19545 ft 345 kts 214°
2026-05-04 15:46 42.99447 12.35981 19166 ft 343 kts 214°
2026-05-04 15:46 42.97415 12.34287 18793 ft 341 kts 214°
2026-05-04 15:46 42.95393 12.32603 18411 ft 340 kts 214°
2026-05-04 15:47 42.93379 12.30927 17978 ft 338 kts 214°
2026-05-04 15:47 42.91374 12.29261 17564 ft 337 kts 214°
2026-05-04 15:47 42.89221 12.28044 17320 ft 336 kts 194°
2026-05-04 15:47 42.86911 12.27886 17176 ft 333 kts 176°
2026-05-04 15:48 42.84675 12.28697 17048 ft 332 kts 164°
2026-05-04 15:48 42.82519 12.29772 16882 ft 329 kts 163°
2026-05-04 15:48 42.78354 12.32159 16426 ft 327 kts 154°
2026-05-04 15:49 42.76393 12.33715 16127 ft 325 kts 152°
2026-05-04 15:49 42.74473 12.35319 15814 ft 323 kts 152°
2026-05-04 15:49 42.72559 12.36915 15500 ft 322 kts 152°
2026-05-04 15:49 42.70646 12.38492 15178 ft 321 kts 152°
2026-05-04 15:50 42.68735 12.40050 14857 ft 320 kts 152°
2026-05-04 15:50 42.66826 12.41591 14549 ft 318 kts 152°
2026-05-04 15:50 42.64921 12.43119 14235 ft 318 kts 152°
2026-05-04 15:50 42.63020 12.44638 13916 ft 317 kts 152°
2026-05-04 15:51 42.61124 12.46149 13561 ft 315 kts 152°
2026-05-04 15:51 42.59237 12.47651 13232 ft 313 kts 152°
2026-05-04 15:51 42.57365 12.49137 12914 ft 311 kts 152°
2026-05-04 15:51 42.55528 12.50595 12611 ft 308 kts 152°
2026-05-04 15:52 42.53681 12.52062 12310 ft 306 kts 152°
2026-05-04 15:52 42.51848 12.53515 12004 ft 304 kts 152°
2026-05-04 15:52 42.50028 12.54955 11691 ft 302 kts 152°
2026-05-04 15:52 42.48228 12.56381 11390 ft 298 kts 152°
2026-05-04 15:53 42.46451 12.57787 11101 ft 294 kts 152°
2026-05-04 15:53 42.44697 12.59174 10824 ft 291 kts 152°
2026-05-04 15:53 42.42955 12.60550 10522 ft 289 kts 152°
2026-05-04 15:53 42.41255 12.61891 10343 ft 283 kts 152°
2026-05-04 15:54 42.39452 12.62781 10207 ft 273 kts 173°
2026-05-04 15:54 42.37583 12.62738 10017 ft 268 kts 188°
2026-05-04 15:54 42.35749 12.62336 9721 ft 267 kts 189°
2026-05-04 15:54 42.33926 12.61909 9439 ft 265 kts 189°
2026-05-04 15:55 42.32112 12.61492 9149 ft 264 kts 189°
2026-05-04 15:55 42.30298 12.61085 8868 ft 264 kts 189°
2026-05-04 15:55 42.28498 12.60689 8673 ft 259 kts 189°
2026-05-04 15:55 42.26748 12.60307 8566 ft 251 kts 189°
2026-05-04 15:56 42.25047 12.59932 8442 ft 244 kts 190°
2026-05-04 15:56 42.23437 12.59311 8196 ft 243 kts 199°
2026-05-04 15:56 42.21852 12.58506 7940 ft 245 kts 200°
2026-05-04 15:56 42.20262 12.57679 7666 ft 245 kts 200°
2026-05-04 15:57 42.18670 12.56857 7412 ft 244 kts 199°
2026-05-04 15:57 42.17078 12.56049 7143 ft 246 kts 199°
2026-05-04 15:57 42.15473 12.55244 6871 ft 246 kts 199°
2026-05-04 15:57 42.13883 12.54454 6739 ft 240 kts 199°
2026-05-04 15:58 42.12318 12.53679 6399 ft 243 kts 199°
2026-05-04 15:58 42.10735 12.52896 6126 ft 242 kts 199°
2026-05-04 15:58 42.09385 12.52228 5893 ft 242 kts 198°
2026-05-04 15:58 42.07802 12.51446 5614 ft 243 kts 198°
2026-05-04 15:59 42.06215 12.50663 5335 ft 243 kts 198°
2026-05-04 15:59 42.04626 12.49881 5060 ft 244 kts 198°
2026-05-04 15:59 42.03030 12.49094 4783 ft 244 kts 198°
2026-05-04 15:59 42.01455 12.48318 4484 ft 238 kts 198°
2026-05-04 16:00 41.99920 12.47562 4212 ft 232 kts 198°
2026-05-04 16:00 41.98383 12.47147 3931 ft 224 kts 173°
2026-05-04 16:00 41.96917 12.47677 3728 ft 216 kts 156°
2026-05-04 16:00 41.95586 12.48559 3505 ft 211 kts 152°
2026-05-04 16:01 41.94327 12.49507 3312 ft 204 kts 152°
2026-05-04 16:01 41.93111 12.50384 3059 ft 198 kts 153°
2026-05-04 16:01 41.91907 12.51223 2798 ft 193 kts 154°
2026-05-04 16:01 41.90725 12.52035 2546 ft 188 kts 154°
2026-05-04 16:02 41.88515 12.53562 2067 ft 168 kts 155°
2026-05-04 16:02 41.86522 12.54936 1656 ft 161 kts 156°
2026-05-04 16:03 41.85529 12.55620 1433 ft 160 kts 155°
2026-05-04 16:03 41.84570 12.56286 1216 ft 150 kts 155°
2026-05-04 16:03 41.83679 12.56902 1008 ft 140 kts 156°
2026-05-04 16:03 41.82844 12.57513 836 ft 140 kts 156°
2026-05-04 16:04 41.81964 12.58111 616 ft 143 kts 158°